CW4438 Weather Reports


Display with metric or nautical units.
time (UTC)temp
F
wind
direction
speed
MPH
gust
MPH
rain 1hr
in
rain 24hr
in
rain mn
in
humidity
%
barometer
mb
20260902224055 99 102 2.0 6.0 0.00 0.00 0.00 34 1013.9
20260902223555 99 207 2.0 6.0 0.00 0.00 0.00 34 1013.9
20260902223055 99 205 2.0 6.0 0.00 0.00 0.00 35 1014.0
20260902222556 99 265 2.0 5.0 0.00 0.00 0.00 35 1013.9
20260902222055 98 149 2.0 5.0 0.00 0.00 0.00 34 1013.9
20260902221554 99 223 2.0 5.0 0.00 0.00 0.00 34 1014.0
20260902221053 99 144 2.0 4.0 0.00 0.00 0.00 35 1013.9
20260902220552 99 137 2.0 7.0 0.00 0.00 0.00 34 1014.0
20260902220049 100 143 3.0 8.0 0.00 0.00 0.00 33 1014.0
20260902215547 101 90 3.0 8.0 0.00 0.00 0.00 33 1014.0
20260902215047 101 112 2.0 6.0 0.00 0.00 0.00 33 1014.1
20260902214548 102 238 2.0 5.0 0.00 0.00 0.00 32 1014.1
20260902213046 101 132 2.0 5.0 0.00 0.00 0.00 33 1014.2
20260902212544 100 113 2.0 5.0 0.00 0.00 0.00 33 1014.2
20260902212044 100 159 2.0 9.0 0.00 0.00 0.00 34 1014.3
20260902211544 99 165 3.0 9.0 0.00 0.00 0.00 35 1014.3
20260902210542 99 119 3.0 7.0 0.00 0.00 0.00 35 1014.5
20260902210032 98 65 2.0 6.0 0.00 0.00 0.00 36 1014.3
20260902205532 98 119 2.0 6.0 0.00 0.00 0.00 35 1014.5
20260902204531 99 211 2.0 8.0 0.00 0.00 0.00 35 1014.6
20260902203531 101 113 3.0 11.0 0.00 0.00 0.00 33 1014.6
20260902203031 101 159 2.0 10.0 0.00 0.00 0.00 33 1014.6
20260902201531 101 231 2.0 7.0 0.00 0.00 0.00 32 1014.8
20260902195030 101 74 3.0 9.0 0.00 0.00 0.00 33 1015.3
20260902194531 101 141 2.0 9.0 0.00 0.00 0.00 33 1015.3
20260902194031 101 216 1.0 3.0 0.00 0.00 0.00 35 1015.4
20260902193531 100 200 2.0 7.0 0.00 0.00 0.00 36 1015.4
20260902193030 100 61 2.0 7.0 0.00 0.00 0.00 35 1015.5
20260902192530 101 149 2.0 6.0 0.00 0.00 0.00 34 1015.7
20260902192030 102 144 3.0 6.0 0.00 0.00 0.00 34 1015.7
20260902191531 102 279 3.0 7.0 0.00 0.00 0.00 34 1015.7
20260902190530 101 199 3.0 6.0 0.00 0.00 0.00 36 1016.0
20260902190026 101 192 2.0 8.0 0.00 0.00 0.00 35 1016.1
20260902185517 101 355 3.0 8.0 0.00 0.00 0.00 35 1016.1
20260902185017 100 300 3.0 8.0 0.00 0.00 0.00 36 1016.1
20260902184017 100 61 2.0 8.0 0.00 0.00 0.00 37 1016.2
20260902183517 99 248 3.0 8.0 0.00 0.00 0.00 38 1016.3
20260902182517 100 269 3.0 7.0 0.00 0.00 0.00 37 1016.6
20260902181520 100 190 2.0 6.0 0.00 0.00 0.00 37 1016.8
20260902181019 99 219 2.0 5.0 0.00 0.00 0.00 37 1016.9
20260902180516 99 0.0 0.0 0.00 0.00 0.00 39 1016.9
20260902172841 97 176 2.0 5.0 0.00 0.00 0.00 40 1017.5
20260902172342 97 180 2.0 5.0 0.00 0.00 0.00 42 1017.7
20260902171840 97 328 3.0 7.0 0.00 0.00 0.00 42 1017.7
20260902171339 96 178 3.0 7.0 0.00 0.00 0.00 42 1017.8
20260902170839 96 217 2.0 6.0 0.00 0.00 0.00 44 1017.8
20260902170340 96 331 2.0 6.0 0.00 0.00 0.00 43 1017.9
20260902165837 96 197 3.0 7.0 0.00 0.00 0.00 43 1017.9
20260902165337 96 261 3.0 7.0 0.00 0.00 0.00 43 1018.0
20260902164834 96 165 3.0 8.0 0.00 0.00 0.00 44 1018.1
20260902164333 96 205 3.0 8.0 0.00 0.00 0.00 44 1018.1
20260902163834 96 288 3.0 6.0 0.00 0.00 0.00 44 1018.2
20260902163332 96 215 2.0 5.0 0.00 0.00 0.00 45 1018.2
20260902162833 95 235 2.0 5.0 0.00 0.00 0.00 45 1018.2
20260902161832 95 173 2.0 7.0 0.00 0.00 0.00 46 1018.3
20260902161332 94 317 3.0 7.0 0.00 0.00 0.00 47 1018.4
20260902160833 94 211 3.0 6.0 0.00 0.00 0.00 46 1018.4
20260902155331 93 212 3.0 7.0 0.00 0.00 0.00 46 1018.4
20260902154831 93 184 2.0 8.0 0.00 0.00 0.00 46 1018.4
20260902153331 92 240 3.0 7.0 0.00 0.00 0.00 49 1018.4
20260902152831 92 170 3.0 6.0 0.00 0.00 0.00 49 1018.4
20260902152331 92 294 3.0 4.0 0.00 0.00 0.00 50 1018.4
20260902151331 91 184 2.0 6.0 0.00 0.00 0.00 50 1018.5
20260902150830 91 239 2.0 8.0 0.00 0.00 0.00 51 1018.4
20260902150331 91 240 2.0 8.0 0.00 0.00 0.00 51 1018.4
20260902145830 91 246 2.0 6.0 0.00 0.00 0.00 52 1018.4
20260902145333 90 92 3.0 7.0 0.00 0.00 0.00 51 1018.4
20260902144830 90 209 3.0 7.0 0.00 0.00 0.00 53 1018.4
20260902144331 90 181 2.0 4.0 0.00 0.00 0.00 54 1018.4
20260902143831 89 265 2.0 4.0 0.00 0.00 0.00 53 1018.3
20260902143331 89 263 2.0 6.0 0.00 0.00 0.00 55 1018.3
20260902142831 88 205 2.0 6.0 0.00 0.00 0.00 56 1018.3
20260902142331 87 229 2.0 5.0 0.00 0.00 0.00 56 1018.3
20260902141831 87 215 2.0 5.0 0.00 0.00 0.00 57 1018.3
20260902140833 85 265 2.0 5.0 0.00 0.00 0.00 61 1018.4
20260902140332 85 209 2.0 7.0 0.00 0.00 0.00 63 1018.4
20260902135832 84 169 2.0 7.0 0.00 0.00 0.00 64 1018.4
20260902135332 82 88 1.0 3.0 0.00 0.00 0.00 67 1018.5
20260902134331 80 207 1.0 4.0 0.00 0.00 0.00 72 1018.4
20260902133832 80 163 0.0 2.0 0.00 0.00 0.00 73 1018.4
20260902132832 78 199 1.0 4.0 0.00 0.00 0.00 76 1018.4
20260902132332 78 82 1.0 4.0 0.00 0.00 0.00 77 1018.3
20260902131831 77 131 0.0 3.0 0.00 0.00 0.00 79 1018.2
20260902131331 76 134 0.0 2.0 0.00 0.00 0.00 81 1018.2
20260902130831 76 119 0.0 2.0 0.00 0.00 0.00 82 1018.2
20260902130330 75 113 0.0 2.0 0.00 0.00 0.00 83 1018.2
20260902125831 74 94 0.0 1.0 0.00 0.00 0.00 84 1018.2
20260902125331 74 70 0.0 1.0 0.00 0.00 0.00 84 1018.2
20260902124830 73 22 0.0 1.0 0.00 0.00 0.00 84 1018.2
20260902124331 73 26 0.0 1.0 0.00 0.00 0.00 84 1018.2
20260902123831 73 27 0.0 1.0 0.00 0.00 0.00 84 1018.2
20260902123331 73 27 0.0 1.0 0.00 0.00 0.00 84 1018.2
20260902122831 73 26 0.0 1.0 0.00 0.00 0.00 84 1018.1
20260902122332 73 26 0.0 1.0 0.00 0.00 0.00 83 1018.0
20260902121832 73 27 0.0 1.0 0.00 0.00 0.00 83 1018.0
20260902121333 73 28 0.0 0.0 0.00 0.00 0.00 83 1018.0
20260902120832 73 27 0.0 1.0 0.00 0.00 0.00 82 1017.9
20260902120332 74 27 0.0 1.0 0.00 0.00 0.00 82 1017.8
20260902115832 74 26 0.0 0.0 0.00 0.00 0.00 81 1017.8
20260902115331 74 26 0.0 0.0 0.00 0.00 0.00 80 1017.8
20260902114331 74 26 0.0 0.0 0.00 0.00 0.00 79 1017.6
20260902113832 74 24 0.0 0.0 0.00 0.00 0.00 80 1017.6
20260902112831 75 26 0.0 1.0 0.00 0.00 0.00 80 1017.5
20260902112330 75 24 0.0 1.0 0.00 0.00 0.00 79 1017.4
20260902111831 75 24 0.0 0.0 0.00 0.00 0.00 78 1017.4
20260902111330 75 25 0.0 0.0 0.00 0.00 0.00 78 1017.4
20260902110831 76 24 0.0 0.0 0.00 0.00 0.00 78 1017.4
20260902110330 76 24 0.0 0.0 0.00 0.00 0.00 77 1017.4
20260902105831 76 24 0.0 0.0 0.00 0.00 0.00 77 1017.3
20260902105332 76 25 0.0 0.0 0.00 0.00 0.00 77 1017.2
20260902104832 76 25 0.0 0.0 0.00 0.00 0.00 76 1017.2
20260902104333 77 23 0.0 0.0 0.00 0.00 0.00 75 1017.1
20260902103831 77 24 0.0 0.0 0.00 0.00 0.00 75 1017.1
20260902103331 77 24 0.0 1.0 0.00 0.00 0.00 75 1017.1
20260902102331 77 24 0.0 1.0 0.00 0.00 0.00 75 1017.1
20260902101831 77 24 0.0 1.0 0.00 0.00 0.00 75 1017.1
20260902101331 77 25 0.0 1.0 0.00 0.00 0.00 75 1017.0
20260902100831 77 30 0.0 2.0 0.00 0.00 0.00 75 1017.0
20260902100330 77 29 0.0 2.0 0.00 0.00 0.00 75 1017.0
20260902095831 77 33 1.0 4.0 0.00 0.00 0.00 75 1017.0
20260902095331 77 35 0.0 4.0 0.00 0.00 0.00 75 1017.0
20260902094831 77 31 0.0 2.0 0.00 0.00 0.00 75 1017.0
20260902094330 77 35 0.0 1.0 0.00 0.00 0.00 76 1017.0
20260902093831 77 31 0.0 1.0 0.00 0.00 0.00 75 1017.0
20260902093330 77 30 0.0 1.0 0.00 0.00 0.00 75 1017.0
20260902092330 77 32 0.0 1.0 0.00 0.00 0.00 75 1016.9
20260902091330 77 32 0.0 2.0 0.00 0.00 0.00 75 1017.0
20260902090831 77 32 0.0 3.0 0.00 0.00 0.00 75 1017.0
20260902085830 77 25 0.0 1.0 0.00 0.00 0.00 75 1016.9
20260902085331 77 26 0.0 2.0 0.00 0.00 0.00 74 1016.9
20260902084831 77 26 0.0 2.0 0.00 0.00 0.00 74 1017.0
20260902084331 77 28 0.0 2.0 0.00 0.00 0.00 74 1016.9
20260902083830 77 28 0.0 3.0 0.00 0.00 0.00 74 1016.9
20260902082830 77 17 0.0 2.0 0.00 0.00 0.00 74 1016.9
20260902082331 77 22 0.0 2.0 0.00 0.00 0.00 74 1016.9
20260902081830 77 22 0.0 2.0 0.00 0.00 0.00 74 1017.0
20260902081331 77 23 0.0 2.0 0.00 0.00 0.00 74 1017.0
20260902080831 77 23 0.0 1.0 0.00 0.00 0.00 74 1017.0
20260902080330 77 24 0.0 1.0 0.00 0.00 0.00 74 1017.0
20260902075831 77 24 0.0 1.0 0.00 0.00 0.00 73 1017.0
20260902075331 77 24 0.0 1.0 0.00 0.00 0.00 73 1017.0
20260902074831 77 24 0.0 1.0 0.00 0.00 0.00 73 1016.9
20260902074331 78 24 0.0 1.0 0.00 0.00 0.00 73 1016.9
20260902073832 78 23 0.0 1.0 0.00 0.00 0.00 73 1016.9
20260902073330 78 23 0.0 1.0 0.00 0.00 0.00 72 1016.9
20260902072831 78 23 0.0 1.0 0.00 0.00 0.00 72 1016.9
20260902072330 78 22 0.0 1.0 0.00 0.00 0.00 72 1017.0
20260902071831 78 23 0.0 1.0 0.00 0.00 0.00 71 1017.0
20260902071330 78 22 0.0 1.0 0.00 0.00 0.00 71 1017.0
20260902070831 78 22 0.0 1.0 0.00 0.00 0.00 71 1017.0
20260902065329 79 22 0.0 1.0 0.00 0.00 0.00 69 1017.0
20260902064329 80 21 0.0 1.0 0.00 0.00 0.00 68 1017.0
20260902063829 80 20 0.0 1.0 0.00 0.00 0.00 68 1016.9
20260902062829 80 20 0.0 2.0 0.00 0.00 0.00 67 1016.9
20260902062330 80 20 0.0 2.0 0.00 0.00 0.00 67 1016.9
20260902060831 81 24 0.0 3.0 0.00 0.00 0.00 66 1017.0
20260902060330 81 18 0.0 1.0 0.00 0.00 0.00 65 1017.0
20260902055831 81 18 0.0 2.0 0.00 0.00 0.00 66 1017.0
20260902055321 81 18 0.0 2.0 0.00 0.00 0.00 65 1016.9
20260902054816 81 18 0.0 1.0 0.00 0.00 0.00 65 1016.9
20260902054317 82 19 0.0 2.0 0.00 0.00 0.00 64 1017.0
20260902053817 82 18 0.0 2.0 0.00 0.00 0.00 64 1016.9
20260902052817 82 24 0.0 1.0 0.00 0.00 0.00 62 1016.8
20260902052317 82 22 0.0 1.0 0.00 0.00 0.00 62 1016.8
20260902051817 82 132 0.0 2.0 0.00 0.00 0.00 62 1016.8
20260902051315 82 132 0.0 2.0 0.00 0.00 0.00 62 1016.8
20260902050815 82 223 0.0 2.0 0.00 0.00 0.00 62 1016.8
20260902050315 82 250 0.0 2.0 0.00 0.00 0.00 62 1016.7
20260902044808 83 169 0.0 3.0 0.00 0.00 0.00 61 1016.7
20260902043804 83 191 0.0 2.0 0.00 0.00 0.00 61 1016.6
20260902043303 83 65 0.0 5.0 0.00 0.00 0.00 60 1016.6
20260902042802 83 223 0.0 5.0 0.00 0.00 0.00 60 1016.6
20260902042256 83 133 0.0 2.0 0.00 0.00 0.00 59 1016.7
20260902041256 84 106 0.0 2.0 0.00 0.00 0.00 58 1016.5
20260902040756 84 105 0.0 2.0 0.00 0.00 0.00 58 1016.5
20260902035754 84 85 0.0 2.0 0.00 0.00 0.00 57 1016.5
20260902035254 85 126 0.0 2.0 0.00 0.00 0.00 57 1016.5
20260902034755 85 128 0.0 2.0 0.00 0.00 0.00 56 1016.5
20260902034251 85 87 0.0 2.0 0.00 0.00 0.00 56 1016.5
20260902033752 85 115 0.0 2.0 0.00 0.00 0.00 56 1016.5
20260902033250 85 134 1.0 5.0 0.00 0.00 0.00 56 1016.5
20260902032748 85 176 1.0 5.0 0.00 0.00 0.00 56 1016.3
20260902032248 85 136 1.0 4.0 0.00 0.00 0.00 55 1016.3
20260902031747 85 173 1.0 6.0 0.00 0.00 0.00 55 1016.2
20260902031242 85 126 1.0 6.0 0.00 0.00 0.00 55 1016.2
20260902030731 85 140 1.0 3.0 0.00 0.00 0.00 55 1016.1
20260902030231 85 184 1.0 3.0 0.00 0.00 0.00 55 1016.1
20260902025731 85 113 1.0 3.0 0.00 0.00 0.00 55 1016.0
20260902025231 85 66 1.0 3.0 0.00 0.00 0.00 54 1016.0
20260902024730 85 113 1.0 3.0 0.00 0.00 0.00 54 1015.9
20260902024231 85 140 1.0 3.0 0.00 0.00 0.00 54 1015.9
20260902023731 85 108 1.0 3.0 0.00 0.00 0.00 54 1015.7
20260902023232 85 161 1.0 3.0 0.00 0.00 0.00 54 1015.7
20260902022231 85 103 0.0 2.0 0.00 0.00 0.00 53 1015.5
20260902021731 85 94 0.0 2.0 0.00 0.00 0.00 52 1015.5
20260902021231 86 139 0.0 2.0 0.00 0.00 0.00 52 1015.4
20260902020731 86 129 0.0 2.0 0.00 0.00 0.00 51 1015.4
20260902020231 86 117 1.0 3.0 0.00 0.00 0.00 51 1015.3
20260902015731 86 130 1.0 6.0 0.00 0.00 0.00 51 1015.3
20260902015231 86 99 1.0 6.0 0.00 0.00 0.00 50 1015.2
20260902014730 86 94 0.0 2.0 0.00 0.00 0.00 50 1015.2
20260902014231 87 86 0.0 1.0 0.00 0.00 0.00 49 1015.1
20260902013730 87 86 0.0 1.0 0.00 0.00 0.00 49 1015.1
20260902013232 88 86 0.0 1.0 0.00 0.00 0.00 47 1015.0
20260902012731 88 86 0.0 1.0 0.00 0.00 0.00 47 1014.9
20260902012231 89 86 0.0 2.0 0.00 0.00 0.00 46 1014.9
20260902011730 89 86 0.0 2.0 0.00 0.00 0.00 46 1014.8
20260902011231 89 81 0.0 2.0 0.00 0.00 0.00 45 1014.8
20260902010731 90 91 0.0 2.0 0.00 0.00 0.00 44 1014.8
20260902010221 90 113 0.0 2.0 0.00 0.00 0.00 44 1014.8
20260902005717 90 125 0.0 3.0 0.00 0.00 0.00 44 1014.8
20260902005211 91 113 0.0 3.0 0.00 0.00 0.00 43 1014.8
20260902004709 91 68 0.0 2.0 0.00 0.00 0.00 42 1014.8
20260902004210 92 114 0.0 2.0 0.00 0.00 0.00 42 1014.8
20260902003206 93 171 0.0 1.0 0.00 0.00 0.00 40 1014.8
20260902002703 93 67 0.0 2.0 0.00 0.00 0.00 40 1014.9
20260902001705 94 128 1.0 3.0 0.00 0.00 0.00 39 1014.9
20260902001204 94 111 1.0 3.0 0.00 0.00 0.00 39 1014.9
20260902000704 94 120 1.0 3.0 0.00 0.00 0.00 39 1014.9
20260901235704 95 130 1.0 3.0 0.00 0.00 0.00 37 1015.0
20260901234151 96 115 0.0 2.0 0.00 0.00 0.00 38 1015.1
20260901233652 96 115 1.0 2.0 0.00 0.00 0.00 38 1015.1
20260901233152 96 120 1.0 5.0 0.00 0.00 0.00 37 1015.1
20260901232649 96 84 1.0 5.0 0.00 0.00 0.00 36 1015.2
20260901232149 96 133 1.0 4.0 0.00 0.00 0.00 36 1015.2
20260901231650 97 207 1.0 4.0 0.00 0.00 0.00 35 1015.2
20260901231150 97 230 1.0 3.0 0.00 0.00 0.00 35 1015.3
20260901230649 97 240 2.0 4.0 0.00 0.00 0.00 35 1015.3
20260901230150 97 192 2.0 4.0 0.00 0.00 0.00 35 1015.3
20260901225649 97 110 2.0 7.0 0.00 0.00 0.00 35 1015.3
20260901225149 97 138 1.0 7.0 0.00 0.00 0.00 35 1015.3
20260901224649 97 173 1.0 4.0 0.00 0.00 0.00 36 1015.3